This demonstration page uses our WeatherBlox Daily Observations layout. Learn more.

Left ArrowRight Arrow

Hourly Observations for November 11, 2018

Temp ( °F °C ) Dew Point ( °F °C ) Humidity (%) Winds ( mph kmh ) Pressure ( in mb ) Visibility ( mi km ) Precip ( " mm )
12:52 am 00:52 Partly Cloudy 25 -3.9 20 -6.7 81 81 SSE 7 11 30.20 1023 10 16 0.00 0.00
1:52 am 01:52 Partly Cloudy 25 -3.9 20 -6.7 81 81 SE 6 9 30.20 1023 10 16 0.00 0.00
2:52 am 02:52 Mostly Cloudy 26 -3.3 20 -6.7 78 78 SE 5 7 30.21 1023 10 16 0.00 0.00
3:52 am 03:52 Mostly Cloudy 28 -2.2 21 -6.1 75 75 WNW 3 6 30.21 1023 10 16 0.00 0.00
4:52 am 04:52 Cloudy 28 -2.2 23 -5 81 81 SE 3 6 30.20 1023 10 16 0.00 0.00
5:52 am 05:52 Mostly Cloudy 29 -1.7 23 -5 78 78 N 7 11 30.22 1023 10 16 0.00 0.00
6:52 am 06:52 Mostly Cloudy 28 -2.2 24 -4.4 85 85 Calm 30.23 1024 10 16 0.00 0.00
7:52 am 07:52 Mostly Cloudy 29 -1.7 25 -3.9 85 85 Calm 30.25 1024 10 16 0.00 0.00
8:52 am 08:52 Mostly Cloudy 32 0 26 -3.3 79 79 S 3 6 30.28 1026 10 16 0.00 0.00
9:52 am 09:52 Cloudy 37 2.8 26 -3.3 65 65 Calm 30.29 1026 10 16 0.00 0.00
10:52 am 10:52 Mostly Cloudy 39 3.9 27 -2.8 62 62 NNW 12 19 30.29 1026 10 16 0.00 0.00
11:30 am 11:30 Mostly Cloudy 39 3.9 28 -2.2 65 65 NNW 13 20 30.33 1027 10 16 0.00 0.00
11:52 am 11:52 Cloudy 38 3.3 28 -2.2 68 68 NNW 14 22 30.29 1026 10 16 0.00 0.00
12:52 pm 12:52 Mostly Cloudy 40 4.4 25 -3.9 55 55 NNW 16 26 30.28 1025 10 16 0.00 0.00
1:52 pm 13:52 Mostly Cloudy 38 3.3 21 -6.1 51 51 NNW 16 26 30.29 1026 10 16 0.00 0.00
2:52 pm 14:52 Mostly Cloudy 35 1.7 20 -6.7 54 54 N 16 26 30.31 1026 10 16 0.00 0.00
3:52 pm 15:52 Mostly Cloudy 33 0.6 20 -6.7 58 58 NNW 15 24 30.32 1027 10 16 0.00 0.00
4:52 pm 16:52 Cloudy 32 0 19 -7.2 59 59 NNW 15 24 30.35 1028 10 16 0.00 0.00
5:52 pm 17:52 Cloudy 31 -0.6 20 -6.7 64 64 NNW 10 17 30.37 1028 10 16 0.00 0.00
6:52 pm 18:52 Cloudy 31 -0.6 20 -6.7 64 64 NNW 13 20 30.39 1029 10 16 0.00 0.00
7:09 pm 19:09 Cloudy 31 -0.6 20 -6.7 64 64 NNW 9 15 30.42 1030 10 16 0.00 0.00
7:52 pm 19:52 Cloudy 31 -0.6 20 -6.7 64 64 NNW 12 19 30.39 1029 10 16 0.00 0.00
8:52 pm 20:52 Mostly Cloudy 30 -1.1 19 -7.2 64 64 N 8 13 30.42 1030 10 16 0.00 0.00
9:52 pm 21:52 Cloudy 28 -2.2 20 -6.7 72 72 N 9 15 30.43 1031 10 16 0.00 0.00
10:41 pm 22:41 Cloudy 28 -2.2 19 -7.2 69 69 N 13 20 30.48 1032 10 16 0.00 0.00
10:52 pm 22:52 Cloudy 27 -2.8 19 -7.2 72 72 N 10 17 30.45 1031 10 16 0.00 0.00
11:52 pm 23:52 Cloudy 27 -2.8 17 -8.3 66 66 NNW 14 22 30.45 1031 10 16 0.00 0.00

Powered by AerisWeather